全球星 M002星 (GLOBALSTAR M002)

导读 | 星芒AI

GLOBALSTAR M002 是 Globalstar 卫星通信公司部署的一颗低轨移动通信卫星,属于其第二代卫星星座计划。该卫星主要用于提供全球范围内的语音和数据通信服务,支持手持终端和移动设备在偏远地区的连接。M002 卫星采用先进通信技术,提高了信号传输效率和系统稳定性。作为 Globalstar 卫星网络的重要组成部分,它在应急通信、海上通信和航空通信等领域发挥着关键作用。

基本信息
目录编号:
25164
目录名称:
GLOBALSTAR M002
国际标识:
1998-008C
轨道中心:
EARTH
卫星名称:
全球星 M002星
卫星全名:
全球星 M002星 (GLOBALSTAR M002)
卫星状态:
在轨 (已飞行10167 天)
发射日期:
1998-02-14 UTC
国别 :
(GLOB)
星等 :
--
轨道信息
数据来源 国际轨道数据 AOE轨道数据
星历时间 2025-12-15T01:07:13+0800
1天前
查看轨道信息
2025-12-14T12:00:00+0800
1天前
查看轨道信息
半长轴 8236.045km 8236.042km
偏心率 0.0002635 0.0001388
轨道倾角 51.998° 51.994°
近地点辐角 108.755° 134.754°
升交点赤经 147.562° 148.935°
平近点角 251.355° 98.442°
近地点 1855.739km 1856.763km
远地点 1860.081km 1859.051km
周期 123.976分钟 123.976分钟
每日圈数 11.615147 11.615155
详细信息
固有亮度:
5
最大亮度:
7.9
平衡模式:
三轴稳定
覆盖范围:
全球
运营商:
全球星公司
运营商所在国:
美国
使用方式:
暂无
卫星简介
全球星星座由48颗卫星加8颗备份星组成。这些卫星分布在8个倾角为52度的圆形轨道平面上,每个轨道平面6颗卫星,另有1 颗备用星。轨道高度约为1414km,传输时延和处理时延小于300ms,整个系统的覆盖区为南北纬70度以内的地区。该卫星仍在工作。
2D轨道图
3D轨道图
轨道高度分析图
轨道倾角分析图
轨道综合分析图
查看轨道综合分析图